Погода в Мецово

Греция     39°46′10″N   21°10′57″E
В апреле 2022 года жителям России запретили посещать сайт meteo.paraplan.net по решению Генеральной прокуратуры. Аудитория сайта уменьшилась в 10 раз. Владельцы сайта не видят смысла в поддержке погодного сервера в таких условиях. Сайт будет закрыт в октябре.
темп.,
°C
ветер,
м/с
пор.,
м/с
влажн.,
%
обл.,
%
осадки,
мм/ч
давл.,
гПа
погр.,
м
25 сентября, вс
вс2500:00+7юз22741 0.0 102218
03:00+6зюз227526 0.0 102223
06:00+6зюз227599 0.0 102120
09:00+11зюз124265 0.0 1020107
12:00+18юз1317100 0.0 1019907
15:00+19зюз341395 0.0 10181194
18:00+17зюз3419100 0.0 1017912
21:00+9зюз3240100 0.0 102035
26 сентября, пн
пн2600:00+8зюз3246100 0.0 102038
03:00+7зюз3352100 0.0 101938
06:00+8зюз3252100 0.0 101836
09:00+12з236199 0.0 1017118
12:00+19зюз2245100 0.0 10151084
15:00+19зюз4539100 0.0 10141312
18:00+16зюз4656100 0.0 10131022
21:00+10зюз3495100 0.0 1014111
27 сентября, вт
вт2700:00+10зюз4594100 0.0 1014239
03:00+10зюз3488100 0.1 1011195
06:00+10юз2489100 0.6 1009229
09:00+10зюз2495100 2.3 1008186
12:00+12юз359399 1.1 1008310
15:00+15зюз4128675 1.6 1006923
18:00+14зюз4118467 0.7 10061132
21:00+10зюз369773 1.1 1008322
28 сентября, ср
ср2800:00+10зюз349366 0.0 1009245
03:00+10зюз359273 0.0 1009360
06:00+9зюз349254 0.0 1009202
09:00+11юз358542 0.1 1009471
12:00+16зюз48591 0.1 10091299
15:00+17зюз57558 0.2 10081409
18:00+15зюз476715 0.1 10081041
21:00+10зюз359858 0.2 1010211
29 сентября, чт
чт2900:00+11зюз378686 0.1 1011660
03:00+11зюз348452 0.1 1011354
06:00+8зюз3396100 0.0 101161
09:00+11зюз338399 0.0 1011211
12:00+16зюз3457100 0.0 10111041
15:00+18зюз4554100 0.1 10101432
18:00+15юз475998 0.1 10111116
21:00+11зюз2388100 0.8 1013283